User: anonymous   Login
Location: Unspecified
(0.0000°N, 0.0000°E)
Time: 10:49:24
(UTC+00:00)
Language:

JASON - Orbit

View from above orbital plane
View from above orbital plane
View from above satellite
View from above satellite

Ground track
Ground track

The orbit data is extracted from the following two-line orbital elements,

1 26997U 01055A   18200.71336510 -.00000079  00000-0 -73959-4 0  9996
2 26997  66.0396 349.4158 0008615 260.5390 187.4505 12.83996129777892
Epoch (UTC): 19 July 2018 17:07:14
Eccentricity: 0.0008615
inclination: 66.0396°
perigee height: 1319 km
apogee height: 1332 km
right ascension of ascending node: 349.4158°
argument of perigee: 260.5390°
revolutions per day: 12.83996129
mean anomaly at epoch: 187.4505°
orbit number at epoch: 77789

The dashed part of the orbit path shows where the satellite is in the earth's shadow,  

DLR